TimeMST,TemperatureF,Dew PointF,Humidity,Sea Level PressureIn,VisibilityMPH,Wind Direction,Wind SpeedMPH,Gust SpeedMPH,PrecipitationIn,Events,Conditions,WindDirDegrees,DateUTC
12:45 AM,19.9,12.9,74,29.92,9.0,Calm,Calm,-,0.00,,Overcast,0,2013-12-07 07:45:00
12:53 AM,21.9,14.0,72,30.02,6.0,SW,9.2,-,0.00,Snow,Light Snow,220,2013-12-07 07:53:00
1:08 AM,21.9,15.1,75,29.92,6.0,South,5.8,-,0.00,Snow,Light Snow,190,2013-12-07 08:08:00
1:53 AM,21.0,14.0,74,29.97,10.0,South,6.9,-,0.00,,Overcast,170,2013-12-07 08:53:00
2:53 AM,21.0,15.1,78,29.94,10.0,SSW,5.8,-,N/A,,Overcast,210,2013-12-07 09:53:00
3:53 AM,21.0,16.0,81,29.91,10.0,SSW,15.0,-,N/A,,Overcast,210,2013-12-07 10:53:00
4:53 AM,21.0,17.1,85,29.88,10.0,SSW,10.4,-,N/A,,Overcast,210,2013-12-07 11:53:00
5:53 AM,21.9,17.1,82,29.86,7.0,South,12.7,23.0,0.00,Snow,Light Snow,180,2013-12-07 12:53:00
6:53 AM,21.9,17.1,82,29.84,5.0,SSW,9.2,-,0.00,Snow,Light Snow,200,2013-12-07 13:53:00
7:48 AM,21.2,17.6,86,29.72,8.0,South,9.2,18.4,0.00,,Overcast,190,2013-12-07 14:48:00
7:53 AM,21.9,18.0,85,29.84,7.0,South,6.9,-,0.00,,Overcast,190,2013-12-07 14:53:00
8:13 AM,21.9,17.1,82,29.72,10.0,SW,6.9,-,N/A,,Overcast,220,2013-12-07 15:13:00
8:53 AM,24.1,19.0,81,29.84,10.0,SW,12.7,-,N/A,,Overcast,230,2013-12-07 15:53:00
9:53 AM,24.1,19.0,81,29.83,10.0,SSW,13.8,-,0.00,,Overcast,200,2013-12-07 16:53:00
10:53 AM,25.0,19.9,81,29.78,10.0,SW,18.4,26.5,N/A,,Overcast,220,2013-12-07 17:53:00
11:53 AM,25.0,21.0,85,29.74,8.0,SW,19.6,26.5,0.00,Snow,Light Snow,220,2013-12-07 18:53:00
12:53 PM,27.0,21.9,81,29.69,10.0,SW,17.3,26.5,0.00,,Overcast,230,2013-12-07 19:53:00
1:53 PM,27.0,21.9,81,29.67,10.0,SW,15.0,21.9,N/A,,Overcast,230,2013-12-07 20:53:00
2:53 PM,27.0,21.9,81,29.67,10.0,SW,15.0,-,N/A,,Overcast,230,2013-12-07 21:53:00
3:53 PM,27.0,21.9,81,29.68,10.0,SW,16.1,-,N/A,,Overcast,220,2013-12-07 22:53:00
4:17 PM,27.0,21.9,81,29.63,1.5,SSW,17.3,24.2,0.00,Snow,Light Snow,210,2013-12-07 23:17:00
4:26 PM,26.1,24.1,92,29.63,0.5,SSW,16.1,24.2,0.00,Fog-Snow,Snow,210,2013-12-07 23:26:00
4:33 PM,26.1,24.1,92,29.64,0.5,SW,16.1,-,0.01,Fog-Snow,Snow,220,2013-12-07 23:33:00
4:38 PM,26.1,23.0,88,29.64,1.2,SW,16.1,-,0.01,Snow,Light Snow,220,2013-12-07 23:38:00
4:42 PM,26.1,23.0,88,29.64,3.0,SW,11.5,21.9,0.01,Snow,Light Snow,220,2013-12-07 23:42:00
4:53 PM,26.1,23.0,88,29.71,9.0,SW,6.9,-,0.01,,Overcast,220,2013-12-07 23:53:00
5:01 PM,26.1,21.9,84,29.66,4.0,WNW,16.1,-,0.00,Snow,Light Snow,300,2013-12-08 00:01:00
5:04 PM,25.0,21.0,85,29.66,1.5,WNW,18.4,23.0,0.00,Snow,Light Snow,290,2013-12-08 00:04:00
5:10 PM,24.1,21.0,88,29.66,0.5,WNW,20.7,26.5,0.00,Fog-Snow,Snow,300,2013-12-08 00:10:00
5:13 PM,23.0,19.9,88,29.66,0.2,WNW,19.6,27.6,0.00,Fog-Snow,Snow,300,2013-12-08 00:13:00
5:21 PM,23.0,19.9,88,29.67,1.0,WNW,16.1,25.3,0.00,Snow,Light Snow,300,2013-12-08 00:21:00
5:33 PM,23.0,19.9,88,29.68,1.2,West,18.4,24.2,0.00,Snow,Light Snow,280,2013-12-08 00:33:00
5:53 PM,23.0,19.9,88,29.77,5.0,SW,9.2,-,0.00,Snow,Light Snow,230,2013-12-08 00:53:00
6:53 PM,24.1,17.1,75,29.79,10.0,SSE,10.4,-,0.00,,Overcast,160,2013-12-08 01:53:00
7:53 PM,21.9,14.0,72,29.81,10.0,SSW,6.9,-,N/A,,Overcast,200,2013-12-08 02:53:00
8:53 PM,21.0,12.0,68,29.85,10.0,Calm,Calm,-,N/A,,Overcast,0,2013-12-08 03:53:00
9:53 PM,18.0,10.9,74,29.89,10.0,SW,6.9,-,N/A,,Overcast,220,2013-12-08 04:53:00
10:53 PM,14.0,7.0,74,29.91,10.0,SW,6.9,-,N/A,,Mostly Cloudy,230,2013-12-08 05:53:00
11:53 PM,9.0,3.9,80,29.95,10.0,Variable,6.9,-,N/A,,Clear,0,2013-12-08 06:53:00